This is the latest recevied weather packets stored in our database for station/object DN9EL-10. If no packets are shown the sender has not sent any weather packets the latest 10 day(s).
| Time | Temp. | Humidity | Pressure | Rain* | Wind** | Luminosity | Snow |
|---|---|---|---|---|---|---|---|
| 1777434232 | 1.67° C | 51% | 969.9 hPa | - | - | - | - |
| 1777433332 | 2.22° C | 51% | 969.8 hPa | - | - | - | - |
| 1777432432 | 2.22° C | 51% | 969.9 hPa | - | - | - | - |
| 1777431532 | 2.22° C | 51% | 969.9 hPa | - | - | - | - |
| 1777430632 | 2.78° C | 50% | 969.8 hPa | - | - | - | - |
| 1777429731 | 2.78° C | 50% | 969.8 hPa | - | - | - | - |
| 1777428831 | 3.33° C | 50% | 969.8 hPa | - | - | - | - |
| 1777427931 | 3.33° C | 50% | 969.7 hPa | - | - | - | - |
| 1777427031 | 3.89° C | 49% | 969.5 hPa | - | - | - | - |
| 1777426131 | 3.89° C | 49% | 969.5 hPa | - | - | - | - |
| 1777425231 | 3.89° C | 49% | 969.4 hPa | - | - | - | - |
| 1777424331 | 4.44° C | 49% | 969.4 hPa | - | - | - | - |
| 1777423431 | 4.44° C | 49% | 969.4 hPa | - | - | - | - |
| 1777422531 | 5° C | 48% | 969.3 hPa | - | - | - | - |
| 1777421631 | 5° C | 48% | 969.4 hPa | - | - | - | - |
| 1777420731 | 5.56° C | 48% | 969.5 hPa | - | - | - | - |
| 1777419830 | 6.11° C | 47% | 969.5 hPa | - | - | - | - |
| 1777418930 | 6.11° C | 47% | 969.4 hPa | - | - | - | - |
| 1777418030 | 6.67° C | 47% | 969.3 hPa | - | - | - | - |
| 1777417130 | 6.67° C | 46% | 969.4 hPa | - | - | - | - |
| 1777416230 | 7.22° C | 46% | 969.3 hPa | - | - | - | - |
| 1777415330 | 7.78° C | 46% | 969.3 hPa | - | - | - | - |
| 1777414430 | 7.78° C | 45% | 969.1 hPa | - | - | - | - |
| 1777413530 | 8.33° C | 45% | 969 hPa | - | - | - | - |
| 1777412630 | 8.89° C | 45% | 969.1 hPa | - | - | - | - |
* Rain since midnight (hover to see other rain measurements)
** Current wind speed in m/s (hover to see current wind gust speed)